| time (UTC) | temp F | wind direction | speed knots | gust knots | rain 1hr in | rain 24hr in | rain mn in | humidity % | barometer mb |
| 20260506113053 | 55 | 28 | 12.2 | 15.6 | 0.00 | 0.00 | 0.00 | 81 | 1012.0 |
| 20260506111542 | 55 | 20 | 10.4 | 14.8 | 0.00 | 0.00 | 0.00 | 81 | 1012.0 |
| 20260506110056 | 55 | 32 | 9.6 | 14.8 | 0.00 | 0.00 | 0.00 | 81 | 1011.6 |
| 20260506104548 | 55 | 42 | 5.2 | 13.9 | 0.00 | 0.00 | 0.00 | 81 | 1011.1 |
| 20260506103045 | 56 | 30 | 9.6 | 13.9 | 0.00 | 0.00 | 0.00 | 80 | 1011.1 |
| 20260506101605 | 56 | 65 | 10.4 | 14.8 | 0.00 | 0.00 | 0.00 | 80 | 1011.4 |
| 20260506100044 | 57 | 26 | 10.4 | 14.8 | 0.00 | 0.00 | 0.00 | 79 | 1011.0 |
| 20260506094540 | 58 | 50 | 10.4 | 16.5 | 0.00 | 0.00 | 0.00 | 79 | 1011.0 |
| 20260506093046 | 58 | 22 | 9.6 | 12.2 | 0.00 | 0.00 | 0.00 | 79 | 1010.8 |
| 20260506091546 | 58 | 31 | 9.6 | 13.0 | 0.00 | 0.00 | 0.00 | 78 | 1010.1 |
| 20260506090058 | 59 | 27 | 7.0 | 13.0 | 0.00 | 0.00 | 0.00 | 78 | 1009.8 |
| 20260506084545 | 60 | 32 | 8.7 | 12.2 | 0.00 | 0.00 | 0.00 | 78 | 1009.8 |
| 20260506083040 | 61 | 34 | 7.8 | 12.2 | 0.00 | 0.00 | 0.00 | 77 | 1010.2 |
| 20260506081548 | 62 | 32 | 7.8 | 11.3 | 0.00 | 0.00 | 0.00 | 77 | 1010.3 |
| 20260506073042 | 64 | 42 | 5.2 | 10.4 | 0.00 | 0.00 | 0.00 | 76 | 1010.2 |
| 20260506071548 | 64 | 46 | 3.5 | 8.7 | 0.00 | 0.00 | 0.00 | 76 | 1010.4 |
| 20260506061548 | 67 | 94 | 4.3 | 8.7 | 0.00 | 0.00 | 0.00 | 71 | 1009.4 |
| 20260506050103 | 74 | 51 | 7.0 | 14.8 | 0.00 | 0.00 | 0.00 | 55 | 1009.3 |
| 20260506044544 | 77 | 49 | 0.9 | 2.6 | 0.00 | 0.00 | 0.00 | 39 | 1009.0 |
| 20260506043046 | 77 | 71 | 0.9 | 3.5 | 0.00 | 0.00 | 0.00 | 39 | 1008.7 |
| 20260506041558 | 77 | 57 | 2.6 | 6.1 | 0.00 | 0.00 | 0.00 | 39 | 1008.8 |
| 20260506040045 | 78 | 76 | 0.9 | 3.5 | 0.00 | 0.00 | 0.00 | 39 | 1008.8 |
| 20260506034550 | 78 | 65 | 1.7 | 3.5 | 0.00 | 0.00 | 0.00 | 37 | 1008.7 |
| 20260506033041 | 78 | 355 | 2.6 | 4.3 | 0.00 | 0.00 | 0.00 | 37 | 1008.8 |
| 20260506031545 | 79 | 13 | 3.5 | 6.1 | 0.00 | 0.00 | 0.00 | 35 | 1008.4 |
| 20260506030044 | 80 | 13 | 2.6 | 4.3 | 0.00 | 0.00 | 0.00 | 34 | 1008.3 |
| 20260506024556 | 80 | 5 | 0.9 | 2.6 | 0.00 | 0.00 | 0.00 | 34 | 1008.1 |
| 20260506023113 | 80 | 0 | 0.0 | 0.0 | 0.00 | 0.00 | 0.00 | 33 | 1008.1 |
| 20260506021548 | 80 | 0 | 0.0 | 2.6 | 0.00 | 0.00 | 0.00 | 33 | 1007.9 |
| 20260506020052 | 80 | 300 | 1.7 | 5.2 | 0.00 | 0.00 | 0.00 | 34 | 1007.6 |
| 20260506014545 | 81 | 296 | 2.6 | 7.0 | 0.00 | 0.00 | 0.00 | 34 | 1007.6 |
| 20260506013052 | 83 | 302 | 4.3 | 8.7 | 0.00 | 0.00 | 0.00 | 34 | 1007.3 |
| 20260506011546 | 85 | 267 | 4.3 | 8.7 | 0.00 | 0.00 | 0.00 | 34 | 1007.0 |
| 20260506010049 | 85 | 255 | 3.5 | 6.1 | 0.00 | 0.00 | 0.00 | 34 | 1007.0 |
| 20260506004544 | 86 | 258 | 4.3 | 7.0 | 0.00 | 0.00 | 0.00 | 32 | 1006.7 |
| 20260506003044 | 87 | 254 | 6.1 | 8.7 | 0.00 | 0.00 | 0.00 | 28 | 1006.6 |
| 20260506001552 | 88 | 263 | 6.1 | 8.7 | 0.00 | 0.00 | 0.00 | 28 | 1006.5 |
| 20260506000047 | 88 | 252 | 6.1 | 9.6 | 0.00 | 0.00 | 0.00 | 30 | 1006.4 |
| 20260505234541 | 89 | 232 | 7.0 | 9.6 | 0.00 | 0.00 | 0.00 | 27 | 1006.3 |
| 20260505233048 | 89 | 265 | 8.7 | 13.0 | 0.00 | 0.00 | 0.00 | 25 | 1006.4 |
| 20260505231547 | 90 | 254 | 10.4 | 14.8 | 0.00 | 0.00 | 0.00 | 25 | 1006.5 |
| 20260505230110 | 90 | 264 | 7.8 | 12.2 | 0.00 | 0.00 | 0.00 | 25 | 1006.5 |
| 20260505224545 | 90 | 257 | 8.7 | 13.0 | 0.00 | 0.00 | 0.00 | 25 | 1006.7 |
| 20260505223048 | 90 | 259 | 8.7 | 16.5 | 0.00 | 0.00 | 0.00 | 26 | 1006.6 |
| 20260505221554 | 90 | 259 | 9.6 | 13.0 | 0.00 | 0.00 | 0.00 | 26 | 1006.5 |
| 20260505220053 | 91 | 266 | 8.7 | 13.9 | 0.00 | 0.00 | 0.00 | 26 | 1006.5 |
| 20260505214542 | 91 | 304 | 3.5 | 11.3 | 0.00 | 0.00 | 0.00 | 28 | 1006.6 |
| 20260505213047 | 91 | 263 | 7.0 | 14.8 | 0.00 | 0.00 | 0.00 | 28 | 1006.6 |
| 20260505211557 | 91 | 253 | 9.6 | 15.6 | 0.00 | 0.00 | 0.00 | 26 | 1006.7 |
| 20260505210044 | 92 | 282 | 7.8 | 14.8 | 0.00 | 0.00 | 0.00 | 30 | 1007.0 |
| 20260505204541 | 91 | 271 | 6.1 | 13.0 | 0.00 | 0.00 | 0.00 | 32 | 1007.1 |
| 20260505203042 | 90 | 254 | 7.8 | 16.5 | 0.00 | 0.00 | 0.00 | 29 | 1007.2 |
| 20260505201549 | 90 | 254 | 4.3 | 15.6 | 0.00 | 0.00 | 0.00 | 34 | 1007.2 |
| 20260505200048 | 90 | 273 | 5.2 | 13.0 | 0.00 | 0.00 | 0.00 | 35 | 1007.4 |
| 20260505194547 | 89 | 261 | 9.6 | 13.9 | 0.00 | 0.00 | 0.00 | 33 | 1007.5 |
| 20260505193057 | 89 | 279 | 8.7 | 16.5 | 0.00 | 0.00 | 0.00 | 33 | 1007.5 |
| 20260505191544 | 88 | 276 | 6.1 | 14.8 | 0.00 | 0.00 | 0.00 | 39 | 1007.7 |
| 20260505190043 | 88 | 312 | 9.6 | 15.6 | 0.00 | 0.00 | 0.00 | 36 | 1007.9 |
| 20260505184548 | 87 | 286 | 8.7 | 13.9 | 0.00 | 0.00 | 0.00 | 41 | 1008.0 |
| 20260505183047 | 87 | 265 | 5.2 | 14.8 | 0.00 | 0.00 | 0.00 | 48 | 1008.1 |
| 20260505181554 | 85 | 281 | 12.2 | 18.2 | 0.00 | 0.00 | 0.00 | 49 | 1008.2 |
| 20260505180041 | 84 | 254 | 13.0 | 20.0 | 0.00 | 0.00 | 0.00 | 51 | 1008.3 |
| 20260505174548 | 84 | 270 | 7.8 | 18.2 | 0.00 | 0.00 | 0.00 | 52 | 1008.4 |
| 20260505173044 | 83 | 257 | 8.7 | 18.2 | 0.00 | 0.00 | 0.00 | 54 | 1008.6 |
| 20260505171543 | 82 | 277 | 10.4 | 17.4 | 0.00 | 0.00 | 0.00 | 57 | 1008.6 |
| 20260505170042 | 81 | 233 | 12.2 | 14.8 | 0.00 | 0.00 | 0.00 | 62 | 1008.7 |
| 20260505164550 | 79 | 232 | 11.3 | 16.5 | 0.00 | 0.00 | 0.00 | 66 | 1008.7 |
| 20260505163045 | 78 | 229 | 12.2 | 18.2 | 0.00 | 0.00 | 0.00 | 68 | 1008.6 |
| 20260505161546 | 77 | 227 | 13.0 | 18.2 | 0.00 | 0.00 | 0.00 | 72 | 1008.5 |
| 20260505153045 | 75 | 223 | 12.2 | 17.4 | 0.00 | 0.00 | 0.00 | 77 | 1008.5 |
| 20260505151545 | 74 | 228 | 13.0 | 19.1 | 0.00 | 0.00 | 0.00 | 77 | 1008.3 |
| 20260505124549 | 68 | 204 | 17.4 | 22.6 | 0.00 | 0.00 | 0.00 | 87 | 1007.4 |
| 20260505123042 | 67 | 221 | 15.6 | 20.9 | 0.00 | 0.00 | 0.00 | 87 | 1007.3 |
| 20260505121543 | 67 | 215 | 14.8 | 20.9 | 0.00 | 0.00 | 0.00 | 87 | 1007.1 |
| 20260505120046 | 67 | 223 | 13.0 | 20.0 | 0.00 | 0.00 | 0.00 | 86 | 1007.1 |
| 20260505114549 | 67 | 221 | 13.9 | 20.9 | 0.00 | 0.00 | 0.00 | 86 | 1006.9 |